{"data":{"norad_id":58495,"intl_designator":"2023-186Y","name":"STARLINK-31002","alt_names":[],"object_type":"PAYLOAD","status":"ACTIVE","operator":null,"country":"US","launch_date":"2023-12-03","launch_site_code":"AFETR","launch_vehicle":null,"mission":null,"orbit_class":"UNKNOWN","rcs_meters":null,"size_class":null,"mass_kg":null,"dimensions":null,"purposes":["comms"],"wikipedia_slug":null,"has_3d_model":false,"image_url":null,"decayed_at":null,"tle_current":{"epoch":"2026-09-19T16:38:02.582880Z","epoch_age_seconds":216501,"freshness":"STALE","line1":"1 58495U 23186Y   26262.69308545 -.00001443  00000+0 -42935-4 0  9999","line2":"2 58495  43.0006  48.2597 0001458 269.4448  90.6236 15.27567621155724","mean_motion":15.27567621,"eccentricity":0.0001458,"inclination_deg":43.0006,"raan_deg":48.2597,"arg_perigee_deg":269.4448,"mean_anomaly_deg":90.6236,"bstar":-4.2935e-5,"rev_number":15572,"period_min":94.267512626205,"perigee_km":482.08579713206,"apogee_km":484.08652980653,"semimajor_km":6861.2231634693,"source":"CELESTRAK","updated_at":"2026-09-21T09:00:33.906124Z"}}}